SCP
0 0 -0 -0 -0 0 0 0 0 0 0 0 0 0 0 0 0 0 0 0 0 0 0 1 1 1 1 1 1 1 1 1 1 1 1 1 1 1 1 1 0 0 0 0
-0 -0 -0 -0 -0 0 0 0 0 0 0 0 0 0 0 0 0 0 0 0 0 0 0 1 1 1 1 1 1 1 1 1 1 1 1 1 1 1 0 0 0 0 0 0
-0 -0 -0 -0 0 0 0 0 0 0 0 0 0 0 0 0 0 0 0 0 0 0 0 0 1 1 1 1 1 1 1 1 1 1 1 1 1 0 0 0 0 0 0 0
0 0 -0 -0 0 0 0 0 0 0 0 0 0 0 0 0 0 0 0 0 0 0 0 0 1 1 1 1 1 1 1 1 1 1 1 1 1 0 0 0 0 0 0 0
0 0 -0 -0 -0 0 0 0 0 0 0 0 0 0 0 0 0 0 0 0 0 0 0 0 0 0 0 0 0 1 1 1 1 1 1 1 1 0 0 0 0 0 0 0
0 0 -0 -0 0 0 0 0 0 0 0 0 0 0 0 0 0 0 0 0 0 0 0 0 0 0 0 0 0 0 0 0 0 0 0 0 0 0 0 0 0 0 0 0
0 0 0 0 0 0 0 0 0 0 0 0 0 0 0 0 0 0 0 0 0 0 0 0 0 0 0 0 0 0 0 0 0 0 0 0 0 0 0 0 0 0 0 0
0 0 0 0 0 0 0 0 0 0 0 0 0 0 0 0 0 0 0 0 0 0 0 0 0 0 0 0 0 0 0 0 0 0 0 0 0 0 0 0 0 0 0 0
0 0 0 0 0 0 0 0 0 0 -0 0 0 0 0 0 0 0 0 0 0 0 0 0 0 0 0 0 0 0 0 0 0 0 0 0 0 0 0 0 0 0 0 0
0 0 0 0 0 0 0 0 0 0 -0 0 0 0 0 0 0 0 0 0 0 0 0 0 0 0 0 0 0 0 0 0 0 0 0 0 0 0 0 0 0 0 0 0
0 0 0 0 0 0 0 0 0 0 0 0 0 0 0 0 0 0 0 0 0 0 0 0 0 0 0 0 0 0 0 0 0 0 0 0 0 0 0 0 0 0 0 0
0 0 0 0 0 0 0 0 0 0 0 0 0 0 0 0 0 0 0 0 0 0 0 0 0 0 0 0 0 0 0 0 0 0 0 0 0 0 0 0 0 0 0 0
0 0 0 0 0 0 0 0 0 0 0 0 0 0 0 0 0 0 0 0 0 0 0 0 0 0 0 0 0 0 0 0 0 0 0 0 0 0 0 0 0 0 0 0
0 0 0 0 0 0 0 0 0 0 0 0 0 0 0 0 0 0 0 0 0 0 0 0 0 0 0 0 0 0 0 0 0 0 0 0 0 0 0 0 0 0 0 0
0 0 0 0 0 0 0 0 0 0 0 0 0 0 0 0 0 0 0 0 0 0 0 0 0 0 0 0 0 0 0 0 0 0 0 0 0 0 0 0 0 0 0 0
0 0 0 0 0 0 0 0 0 0 0 0 0 0 0 0 0 0 0 0 0 0 0 0 0 0 0 0 0 0 0 0 0 0 0 0 0 0 0 0 0 0 0 0
0 0 0 0 0 0 0 0 0 0 0 0 0 0 0 0 0 0 0 0 0 0 0 0 0 0 0 0 0 0 0 0 0 0 0 0 0 0 0 0 0 0 0 0
0 0 0 0 0 0 0 0 0 0 0 0 0 0 0 0 0 0 0 0 0 0 0 0 0 0 0 0 0 0 0 0 0 0 0 0 0 0 0 0 0 0 0 0
0 0 0 0 0 0 0 0 0 0 0 0 0 0 0 0 0 0 0 0 0 0 0 0 0 0 0 0 0 0 0 0 0 0 0 0 0 0 0 0 0 0 0 0
0 0 0 0 0 0 0 0 0 0 0 0 0 0 0 0 0 0 0 0 0 0 0 0 0 0 0 0 0 0 0 0 0 0 0 0 0 0 0 0 0 0 0 0
0 0 0 0 0 0 0 0 0 0 0 0 0 0 0 0 0 0 0 0 0 0 0 0 0 0 0 0 0 0 0 0 0 0 0 0 0 0 0 0 0 0 0 0
0 0 0 0 0 0 0 0 0 0 0 0 0 0 0 0 0 0 0 0 0 0 0 0 0 0 0 0 0 0 0 0 0 0 0 0 0 0 0 0 0 0 0 0
0 0 0 0 0 0 0 0 0 0 0 0 0 0 0 0 0 0 0 0 0 0 0 0 0 0 0 0 0 0 0 0 0 0 0 0 0 0 0 0 0 0 0 0
0 0 0 0 0 0 0 0 0 0 0 0 0 0 0 0 0 0 0 0 0 0 0 0 0 0 0 0 0 0 0 0 0 0 0 0 0 0 0 0 0 0 0 0
0 0 0 0 0 0 0 0 0 0 0 0 0 0 0 0 0 0 0 0 0 0 0 0 0 0 0 0 0 0 0 0 0 0 0 0 0 0 0 0 0 0 0 0
0 0 0 0 0 0 0 0 0 0 0 0 0 0 0 0 0 0 0 0 0 0 0 0 0 0 0 0 0 0 0 0 0 0 0 0 -0 0 0 0 0 0 0 0
Wind_Speed
6 8 6 2 4 6 6 8 7 4 2 5 5 4 2 2 3 3 3 4 5 6 7 7 7 6 6 6 5 3 2 3 4 4 5 5 4 4 3 3 3 3 4 3
8 8 3 3 4 7 8 9 7 3 3 5 4 4 3 3 3 3 4 4 5 5 6 7 8 7 7 6 5 4 2 1 2 3 4 4 5 4 4 5 5 5 5 5
9 1 1 5 7 8 9 9 7 4 3 7 7 7 7 5 5 5 5 6 6 6 6 7 7 8 8 7 6 5 4 2 2 5 6 6 6 5 4 5 5 6 7 6
7 4 6 8 8 8 8 5 6 7 8 7 9 7 8 8 7 6 6 6 7 7 7 7 8 8 8 7 6 6 6 6 4 4 6 8 6 6 5 5 6 8 9 8
6 5 8 10 7 7 7 5 7 9 10 9 10 9 5 10 9 8 7 7 7 7 8 8 8 8 8 7 7 7 8 9 8 6 7 8 8 8 7 7 9 9 9 9
11 6 7 8 6 6 6 6 7 9 9 11 10 9 5 7 8 10 9 8 8 8 9 9 9 9 9 8 8 8 9 10 9 10 9 10 12 11 10 9 9 8 7 8
8 8 7 7 8 7 9 9 7 8 9 7 4 6 0 3 4 11 12 10 9 9 9 9 10 9 10 10 10 9 11 11 11 11 11 11 11 11 11 9 9 9 8 8
7 5 5 5 7 6 8 11 9 8 6 2 4 4 5 6 8 11 12 11 10 9 9 10 10 9 9 10 10 10 11 12 12 12 12 11 11 9 9 11 9 9 8 8
5 3 3 4 5 8 7 8 8 10 10 7 4 3 5 8 10 11 11 11 10 10 9 9 10 10 10 10 10 10 11 12 12 12 13 13 13 13 12 11 11 9 8 8
6 7 4 3 6 8 9 6 5 8 7 8 5 6 5 12 12 11 11 10 10 10 10 9 9 10 10 10 11 12 12 12 13 12 11 12 13 13 12 11 12 11 10 9
6 7 5 6 6 6 7 7 7 8 7 8 6 1 4 8 12 13 12 11 10 10 9 8 9 9 10 10 11 12 12 13 13 13 13 13 13 13 12 11 11 10 9 9
4 6 7 4 1 3 6 6 7 7 8 8 7 2 5 6 11 14 14 12 11 11 10 9 9 10 11 11 11 11 12 13 13 13 13 12 12 12 12 11 10 9 9 9
4 5 7 5 7 7 6 6 7 8 8 7 7 2 7 10 13 14 15 14 12 11 10 9 9 10 10 11 11 11 12 12 12 12 13 12 11 11 11 10 9 9 9 9
4 6 8 8 5 3 4 4 6 8 7 6 5 3 7 11 13 14 14 14 13 12 11 10 10 10 10 11 11 11 11 11 11 12 12 11 10 10 10 9 9 8 8 8
5 6 6 6 5 5 5 5 5 6 7 7 2 2 7 10 13 15 15 14 13 12 11 11 10 10 10 11 11 10 10 10 10 11 11 10 9 9 8 8 8 8 8 8
5 6 5 5 4 5 5 4 4 3 3 2 2 3 8 11 13 14 15 15 15 14 13 12 11 11 10 11 10 10 10 10 10 10 10 9 8 8 8 8 8 8 8 8
6 6 6 4 3 6 5 2 2 1 0 1 1 5 13 13 14 16 16 16 15 15 14 13 12 10 10 9 10 10 10 10 9 9 9 9 8 8 7 7 7 7 7 7
5 6 5 4 4 6 4 3 0 1 2 2 4 11 13 12 11 12 13 14 15 14 14 12 11 10 10 10 9 9 10 9 9 9 8 8 7 7 7 7 7 6 6 6
5 6 5 5 5 3 5 4 3 2 2 3 9 12 12 14 11 8 9 11 12 13 13 11 11 10 10 11 10 9 9 8 8 8 8 7 7 7 7 7 6 6 5 5
5 7 6 5 6 3 5 5 2 3 4 7 11 14 15 14 8 7 11 13 13 13 12 11 11 10 10 10 10 9 8 8 8 7 7 7 6 6 6 6 5 5 4 4
7 6 7 6 5 1 6 4 4 4 5 11 12 13 13 7 6 14 16 15 14 14 13 12 11 10 9 9 9 8 8 7 7 7 7 7 6 6 6 5 4 4 3 4
5 4 4 4 4 3 5 4 0 6 8 11 12 12 10 12 17 17 17 16 15 15 14 12 10 9 8 8 8 8 7 7 7 7 7 6 5 5 6 5 4 3 2 3
3 3 3 3 5 6 3 4 5 5 10 11 13 13 14 16 17 17 16 16 15 14 13 11 11 10 8 7 7 8 8 7 6 6 7 6 6 5 5 4 4 3 2 2
4 1 2 4 6 6 5 6 7 9 12 13 14 15 16 17 18 17 15 14 14 13 12 10 11 10 9 8 7 7 7 6 6 6 6 5 5 5 4 2 3 3 3 3
4 5 4 4 8 8 7 8 11 13 15 16 15 15 16 18 18 17 15 14 13 12 11 10 10 10 10 9 8 8 7 6 6 6 5 4 4 4 4 4 5 5 7 6
5 4 3 2 10 8 11 11 14 16 16 17 17 16 16 17 17 16 14 13 13 13 11 10 11 10 10 9 9 7 6 6 5 5 4 3 3 3 2 4 5 6 4 4
Wind_Direction
203 233 237 266 274 297 287 278 273 270 230 245 229 212 184 170 174 147 121 102 88 75 63 56 48 44 50 53 56 54 101 136 152 161 161 152 139 121 99 83 77 93 100 108
218 229 247 265 256 258 258 260 257 230 172 238 218 210 185 172 157 131 116 100 91 80 66 58 48 44 43 47 43 43 55 118 166 159 145 129 117 100 89 71 61 65 81 88
250 315 162 246 241 247 252 260 271 266 223 219 211 212 194 160 144 122 109 98 87 81 71 62 54 46 41 36 31 29 25 50 115 130 123 118 113 103 86 77 62 53 66 75
252 250 238 251 255 258 263 263 263 244 239 231 226 247 196 181 169 147 123 107 96 81 73 66 57 49 41 36 36 41 45 51 70 110 126 131 125 114 99 93 83 69 63 64
243 235 248 258 267 266 285 297 257 247 253 260 236 252 199 177 187 164 135 111 97 86 74 66 59 54 48 44 48 52 60 60 62 80 105 112 107 102 100 95 90 79 67 62
265 259 263 270 272 259 265 251 237 238 244 248 242 247 228 186 196 157 133 113 98 87 79 70 65 60 53 49 55 61 66 65 64 71 84 97 105 109 108 102 95 84 75 67
242 226 216 243 251 215 229 241 239 231 228 239 213 241 17 122 154 150 137 122 105 90 80 69 59 56 53 50 56 64 71 70 70 75 78 88 95 97 95 95 91 88 80 72
271 241 186 210 253 262 233 251 266 281 278 263 201 233 80 78 103 119 123 120 107 91 80 72 63 57 57 56 60 68 72 75 74 76 79 83 86 87 85 83 85 83 79 75
279 287 144 217 248 261 250 242 273 283 279 273 233 144 123 124 124 127 127 121 109 97 86 77 70 64 61 62 65 72 78 79 79 80 82 82 84 86 86 85 83 82 82 83
272 277 249 212 226 222 267 282 259 262 276 274 243 217 186 167 157 146 137 126 115 105 93 85 78 73 69 70 76 77 79 82 84 83 83 86 86 87 88 86 84 83 83 84
250 265 246 218 239 254 220 229 253 271 283 287 280 74 56 167 160 150 138 130 121 111 101 93 89 85 82 80 81 84 83 83 83 84 85 86 86 87 87 86 86 86 87 87
227 269 274 251 222 283 262 258 254 264 271 270 285 69 61 126 139 139 133 128 121 114 109 106 103 99 94 90 86 86 87 87 87 89 88 88 91 91 90 89 88 87 86 85
191 245 262 223 187 197 230 237 253 262 271 272 277 103 98 121 129 134 135 135 129 123 120 115 107 101 98 96 93 91 91 93 95 96 95 93 92 92 91 90 89 87 86 84
242 258 278 297 328 315 248 239 249 259 269 279 280 139 142 140 139 140 139 138 134 131 128 123 116 110 107 105 102 99 98 100 101 100 97 94 91 91 92 92 90 87 86 85
240 265 272 282 283 271 272 270 257 258 282 296 303 162 160 156 151 148 144 143 139 137 135 132 125 119 117 114 110 107 106 105 104 103 100 98 96 95 95 94 91 89 86 88
229 267 263 249 237 242 248 253 252 257 279 285 151 126 134 138 141 147 151 151 148 146 143 138 131 128 127 124 121 119 116 113 110 107 105 104 103 100 97 96 95 91 87 85
215 241 259 254 221 240 235 246 247 204 81 229 236 130 139 145 153 159 159 159 156 152 148 145 139 136 134 131 129 127 123 120 116 112 111 112 109 104 101 99 96 93 91 90
237 244 260 262 236 250 73 72 61 122 82 25 93 131 148 148 147 152 158 157 154 151 148 144 140 140 139 135 129 127 127 125 120 116 113 110 109 106 103 99 96 95 94 92
236 242 260 263 258 254 135 155 179 215 120 113 131 132 129 124 118 127 146 149 148 147 143 140 141 141 139 135 133 132 130 124 119 113 109 107 109 108 107 102 100 99 98 96
205 236 253 262 283 302 91 117 136 234 151 135 143 144 146 154 155 146 146 140 138 138 138 138 138 137 138 140 141 140 134 126 117 111 105 105 105 103 100 100 101 100 101 100
199 216 243 265 274 66 84 128 198 257 90 141 150 152 160 169 113 131 140 139 140 140 139 140 140 139 139 143 144 137 132 124 118 109 104 100 99 98 98 101 100 105 103 95
238 234 237 263 269 88 95 169 316 56 110 137 142 145 133 109 115 129 135 138 140 139 142 144 143 140 140 145 142 133 127 123 120 111 106 102 98 96 99 99 97 94 96 121
256 339 346 9 46 76 71 59 67 108 128 133 137 134 128 127 130 133 136 138 139 141 143 146 144 139 142 149 146 134 128 126 121 114 109 107 102 93 87 93 104 113 110 84
148 157 166 133 107 104 99 101 109 119 125 129 132 133 134 132 133 133 134 136 138 140 142 144 143 141 141 143 140 130 129 127 124 120 117 118 115 108 94 76 74 67 60 62
132 174 173 135 126 126 115 116 118 117 121 125 129 132 133 133 134 135 135 138 139 140 143 144 144 143 140 138 134 132 133 133 126 124 126 128 117 101 100 82 51 41 55 35
169 182 219 144 156 146 132 130 130 128 129 131 130 128 132 135 135 135 134 136 139 142 145 145 146 143 141 140 138 135 138 139 138 141 145 137 127 116 118 122 118 72 59 84